NIMBUS 2 DEB, 26670

Orbit data source: Space-Track

NIMBUS 2 DEB, 26670 is space debris in SSO originally from a launch on Sun, 15 May 1966 UTC launched from the Air Force Western Test Range (AFWTR). Debris objects in space refer to the collection of defunct objects orbiting the Earth. Examples of debris include non-operational satellites, rocket bodies, and fragments generated from explosions, collisions, or faulty payload assembly.

Loading next visibility...
Identifier
26670, 1966-040K
Orbit
SSO
Country
Flag of USUS
Related business
Manufacturer
Unknown
Mission
Spacecraft
Bus & Motor
Unknown
Mass
Unknown
Launch date (UTC)
1966-05-15 (60 years ago)
Launch vehicle
Unknown
Launch site
Air Force Western Test Range (AFWTR)
Object type
Payload
Rocket body
Debris
Shape & HBR
Unknown shape, 0.1 m
Radar Cross Section
Small (<0.1 m²)

Expand to show TLE details & history
Last TLE update: 5 days ago

TLE from 5 days ago
0 NIMBUS 2 DEB
1 26670U 66040K   26168.12352771  .00004515  00000-0  31365-2 0  9993
2 26670 100.2892   4.9255 0035045  71.7180  56.3363 13.99118934950593
Epoch: 2026-06-17T02:57Z
TLE epoch observation values (Epoch: 2026-06-17T02:57:52.794Z)
Latitude
50.56267°
Longitude
-112.24744°
Altitude
890.765 km
Speed
7.419 km/s
True Right ascension
13h 10m 25s
True Declination
50° 23' 49"
Sunlit
Object was in daylight at epoch
Visualization orbit readout
Latitude
Unknown
Longitude
Unknown
Altitude
Unknown
Speed
Unknown
Apparent Right ascension
Unknown
Apparent Declination
Unknown
Sunlit
N/A
Visualization observer readout
Local Sidereal Time
00:51:31
Azimuth
Unknown
Elevation
Unknown
Doppler factor
Unknown
Orbital elements
Apogee altitude
919.601 km
Perigee altitude
868.63 km
Semi-major axis
7,272.253 km
Eccentricity
0.0035
Inclination
100.2892°
RAAN
4.9255°
Arg. of periapsis
71.718°
True anomaly
56.67135°
Mean anomaly
56.3363°
Eccentric anomaly
56.50375°
Mean motion
3.49977 °/min
Orbital period
102.86 mins
BSTAR
0.0031365
Loading maneuver chart data...
Computing Atmospheric mass density...
Loading historical data...
Loading historical data...
Loading historical data...
Loading historical data...
Loading historical data...
Loading historical data...
Loading historical data...

Documentation

Showing up to 5 results
|